Temperature
3 3 2 2 1 1 0 -1 -1 -2 -3 -4 -5 -5 -6 -6 -6 -6 -7 -7 -7 -7 -7 -7 -6 -6 -5 -5 -5 -4 -4 -3 -2 -1 0 1 2 3 4 5 7 9 11
3 2 2 1 0 -0 -1 -2 -2 -3 -4 -5 -6 -6 -6 -7 -7 -7 -7 -7 -7 -7 -8 -8 -7 -7 -6 -6 -5 -5 -5 -4 -3 -2 -1 0 1 3 4 5 6 7 9
2 2 1 0 -0 -1 -2 -2 -3 -4 -5 -6 -6 -6 -7 -7 -7 -7 -7 -7 -7 -7 -7 -8 -8 -8 -7 -7 -6 -6 -6 -5 -4 -3 -2 -1 0 2 3 4 5 6 8
2 1 1 0 -1 -1 -2 -3 -4 -4 -5 -6 -6 -6 -6 -7 -7 -7 -7 -7 -8 -8 -8 -8 -9 -8 -8 -7 -7 -7 -6 -6 -5 -4 -3 -2 -0 1 2 3 4 5 7
2 1 0 -0 -1 -2 -3 -3 -4 -5 -5 -6 -7 -6 -6 -7 -7 -7 -7 -8 -8 -8 -8 -8 -9 -9 -9 -8 -8 -7 -7 -7 -6 -5 -4 -2 -1 1 2 3 4 5 6
2 1 0 -0 -1 -2 -3 -4 -4 -5 -5 -7 -7 -7 -6 -6 -6 -7 -8 -8 -8 -8 -9 -9 -9 -9 -9 -9 -9 -8 -8 -7 -6 -5 -4 -3 -1 0 1 3 4 5 5
2 1 0 -1 -1 -2 -3 -4 -4 -4 -5 -6 -7 -7 -6 -6 -7 -7 -8 -8 -8 -9 -9 -9 -9 -9 -9 -9 -10 -9 -8 -8 -7 -6 -5 -3 -2 -0 1 2 3 4 5
2 1 0 -1 -2 -2 -3 -4 -5 -5 -5 -6 -8 -9 -9 -9 -9 -8 -8 -8 -9 -9 -9 -9 -10 -10 -10 -10 -9 -10 -9 -8 -7 -6 -5 -4 -2 -1 1 2 3 4 5
2 1 0 -1 -2 -2 -3 -4 -5 -5 -6 -6 -8 -10 -11 -11 -11 -9 -9 -9 -9 -9 -9 -10 -10 -10 -10 -10 -10 -9 -9 -9 -8 -7 -6 -4 -3 -1 0 1 3 4 4
2 1 0 -1 -2 -2 -3 -4 -4 -5 -6 -7 -8 -9 -10 -11 -12 -12 -10 -10 -10 -10 -10 -10 -10 -10 -10 -10 -10 -10 -9 -9 -8 -7 -6 -4 -3 -2 -1 1 2 3 4
2 1 0 -1 -2 -2 -3 -4 -4 -5 -6 -7 -8 -9 -9 -10 -11 -12 -12 -10 -10 -11 -11 -11 -11 -11 -11 -11 -10 -10 -10 -9 -8 -7 -6 -5 -4 -2 -1 0 1 3 4
2 1 -0 -1 -2 -2 -3 -4 -4 -5 -6 -7 -8 -9 -9 -10 -10 -11 -12 -12 -11 -11 -11 -11 -11 -11 -11 -11 -11 -11 -10 -9 -9 -8 -7 -6 -5 -4 -2 -1 0 2 3
2 1 -0 -1 -2 -3 -3 -4 -5 -5 -6 -7 -8 -8 -9 -9 -10 -10 -11 -12 -12 -12 -12 -11 -11 -11 -11 -11 -11 -11 -10 -10 -9 -9 -8 -7 -6 -5 -4 -2 -1 0 2
2 1 -0 -1 -2 -3 -3 -4 -5 -5 -6 -7 -8 -8 -9 -9 -9 -10 -10 -11 -12 -12 -12 -11 -11 -11 -11 -11 -11 -11 -10 -10 -10 -9 -8 -8 -7 -6 -5 -3 -2 -1 0
2 1 -0 -1 -2 -3 -3 -4 -4 -5 -6 -7 -8 -8 -9 -9 -9 -9 -10 -11 -12 -12 -12 -12 -12 -11 -11 -11 -11 -11 -11 -10 -10 -10 -9 -8 -7 -6 -5 -4 -3 -2 -1
1 1 -0 -1 -2 -3 -3 -4 -4 -5 -6 -7 -8 -8 -8 -9 -9 -9 -10 -10 -11 -12 -13 -12 -12 -11 -11 -11 -11 -11 -11 -11 -10 -10 -9 -9 -8 -7 -6 -5 -4 -3 -2
1 0 -0 -1 -2 -2 -3 -4 -4 -5 -6 -7 -7 -8 -8 -9 -9 -9 -10 -10 -11 -12 -13 -12 -12 -12 -11 -11 -10 -10 -10 -10 -10 -10 -10 -9 -8 -7 -6 -5 -4 -4 -3
1 0 -0 -1 -2 -2 -3 -4 -4 -5 -6 -7 -7 -8 -8 -9 -9 -9 -10 -10 -11 -12 -12 -13 -12 -12 -11 -11 -11 -11 -11 -11 -11 -11 -10 -10 -9 -8 -7 -6 -5 -4 -3
1 0 -1 -1 -2 -2 -3 -4 -4 -5 -6 -7 -7 -8 -8 -9 -9 -9 -10 -10 -11 -11 -12 -12 -12 -12 -12 -11 -11 -11 -11 -11 -11 -11 -11 -10 -9 -8 -7 -6 -5 -4 -3
1 0 -1 -1 -2 -2 -3 -4 -4 -5 -6 -6 -7 -8 -9 -9 -9 -9 -10 -10 -10 -11 -11 -11 -12 -12 -11 -11 -11 -12 -12 -12 -12 -11 -11 -10 -9 -8 -7 -6 -5 -4 -3
1 -0 -1 -1 -2 -2 -3 -4 -4 -5 -6 -6 -7 -8 -9 -9 -9 -9 -9 -9 -10 -10 -10 -11 -11 -11 -11 -11 -11 -12 -12 -12 -12 -12 -11 -10 -10 -9 -7 -6 -5 -4 -3
0 -0 -1 -1 -2 -2 -3 -4 -5 -6 -6 -7 -8 -8 -9 -9 -9 -9 -10 -10 -10 -10 -10 -10 -10 -11 -11 -11 -12 -12 -12 -12 -12 -12 -12 -11 -10 -9 -7 -6 -5 -4 -3
0 -1 -1 -2 -2 -3 -3 -4 -5 -6 -7 -8 -8 -8 -9 -9 -9 -9 -9 -9 -9 -9 -10 -10 -10 -11 -11 -11 -11 -12 -12 -12 -12 -12 -12 -12 -10 -9 -7 -6 -5 -4 -4
-0 -1 -1 -2 -2 -3 -3 -4 -5 -6 -6 -7 -7 -8 -9 -9 -9 -9 -9 -9 -9 -9 -10 -10 -11 -11 -11 -11 -11 -11 -11 -12 -12 -12 -12 -12 -10 -9 -7 -6 -5 -4 -3
-0 -1 -1 -2 -2 -3 -4 -4 -5 -5 -6 -6 -7 -8 -9 -9 -9 -9 -9 -9 -9 -9 -9 -10 -11 -11 -11 -12 -12 -12 -12 -12 -12 -12 -12 -12 -11 -10 -7 -6 -5 -4 -3
-1 -1 -2 -2 -3 -3 -4 -4 -5 -5 -6 -6 -7 -8 -9 -9 -9 -9 -9 -9 -9 -9 -10 -10 -11 -11 -12 -13 -13 -13 -13 -13 -13 -13 -12 -12 -11 -11 -8 -5 -4 -4 -3
Wind_Speed
7 5 4 5 6 6 7 8 9 10 11 13 13 13 15 17 17 16 16 19 21 22 24 27 29 31 32 33 34 35 37 38 38 38 38 38 37 37 36 35 34 33 31
8 6 4 2 1 2 3 5 8 9 10 12 13 15 16 17 16 17 17 17 19 21 24 26 29 31 33 34 35 36 37 38 39 39 39 39 38 38 37 36 35 34 32
10 8 5 4 4 4 5 6 8 9 9 9 10 14 14 15 15 17 17 16 16 19 22 25 28 30 32 34 36 37 38 39 40 40 40 40 39 39 38 37 36 35 33
13 11 8 7 8 7 7 7 8 4 5 5 6 10 12 13 15 16 15 15 16 15 19 24 27 30 32 34 36 37 38 39 39 40 41 41 40 39 39 38 37 36 34
16 14 11 10 9 9 8 7 5 4 5 6 7 7 9 11 14 14 13 14 15 16 18 20 26 29 31 33 35 37 38 39 39 40 40 41 40 39 39 39 37 37 35
18 16 13 12 11 8 6 6 5 5 5 6 8 8 7 10 12 11 11 12 14 16 17 19 22 24 29 32 34 37 38 39 39 39 40 40 40 39 39 39 37 37 35
19 17 12 12 11 7 6 6 4 5 4 3 4 6 8 8 8 6 9 10 13 15 16 18 20 21 23 29 32 35 37 39 39 39 39 39 39 38 38 37 37 37 35
20 16 15 12 11 7 6 6 5 3 4 2 2 4 5 4 4 7 6 7 9 12 14 19 20 22 22 23 27 34 36 37 38 39 38 38 38 38 36 35 35 35 34
20 18 16 15 12 9 6 7 6 6 4 3 4 3 3 5 7 5 7 7 7 6 11 16 19 21 24 25 25 29 33 36 37 38 37 37 36 35 34 32 31 31 31
19 19 17 16 13 11 7 7 7 6 5 5 4 5 6 6 5 7 5 5 8 9 9 14 17 21 24 24 25 30 34 36 36 36 35 36 34 33 32 30 27 27 28
17 18 17 16 13 11 10 9 6 7 6 6 5 5 6 6 8 8 13 13 9 7 8 9 13 18 23 23 23 27 33 35 36 35 34 33 32 31 29 27 25 24 24
9 15 16 15 14 12 11 10 9 8 7 8 7 6 6 6 6 8 10 16 17 11 9 7 9 15 20 21 24 30 33 35 35 34 34 32 32 30 29 26 24 20 19
9 11 14 13 13 14 14 13 8 8 8 9 9 8 8 9 9 10 12 16 18 16 10 8 8 14 18 19 22 30 31 32 33 34 34 33 31 30 28 26 24 21 18
11 11 15 14 15 15 14 12 8 8 7 9 11 9 9 10 9 11 12 14 18 19 13 9 6 9 15 18 23 29 25 30 32 34 33 32 31 29 28 26 24 22 20
10 13 13 12 13 14 13 10 8 9 8 9 10 11 10 10 10 10 12 12 14 19 20 11 6 7 12 17 23 22 22 28 33 34 33 31 30 29 28 26 24 22 21
11 11 12 11 10 11 11 9 9 9 9 10 9 10 11 10 10 11 12 12 13 16 19 11 10 10 11 17 24 23 22 31 32 32 31 30 29 29 28 26 25 23 21
14 13 12 12 11 11 10 9 10 9 10 11 11 11 14 12 11 11 12 13 13 14 18 17 13 12 13 15 16 18 20 20 22 29 30 30 30 29 28 26 26 24 23
14 14 12 12 12 11 10 10 11 11 11 12 12 12 14 12 13 13 12 14 14 14 16 20 16 13 15 14 14 14 14 17 16 26 30 30 29 28 27 26 25 24 24
14 13 13 13 12 11 10 11 11 11 11 12 13 13 14 14 15 13 14 14 13 14 14 17 18 15 13 12 13 14 14 12 16 21 25 26 27 27 26 26 25 25 24
15 14 14 13 12 10 10 10 10 11 12 13 14 14 15 15 15 15 15 15 15 15 15 16 16 16 14 11 10 12 12 10 12 13 18 21 24 25 24 24 25 25 25
15 13 13 12 11 9 9 10 10 12 13 13 14 14 15 17 20 18 15 13 13 13 13 14 15 14 13 11 10 10 13 12 11 11 12 12 11 10 12 18 22 24 25
13 13 13 12 11 10 15 19 15 12 13 13 13 12 12 15 19 24 27 26 23 17 15 14 14 14 14 13 11 12 13 13 13 6 8 11 9 11 11 10 19 25 26
13 13 13 12 12 14 18 19 20 13 10 10 10 10 11 11 17 11 20 26 24 27 25 18 16 16 16 13 14 16 14 14 14 9 9 14 10 12 11 14 24 25 26
13 13 13 13 12 13 18 19 19 12 8 8 9 10 11 11 13 15 15 16 14 14 18 14 13 15 15 15 15 15 15 14 13 11 10 12 10 11 12 11 21 25 25
13 13 11 13 12 13 17 18 17 7 8 9 9 10 11 11 19 24 18 14 11 11 18 21 21 21 24 24 19 11 9 10 12 9 6 7 8 9 10 12 14 21 24
13 13 12 12 12 11 15 16 16 7 8 9 8 9 15 15 21 24 15 11 12 13 11 10 13 16 14 16 20 11 7 9 10 7 4 5 5 5 5 5 5 7 11
Wind_Direction
142 116 81 55 40 27 14 358 345 334 324 317 311 307 304 303 301 301 304 317 323 324 324 323 322 321 319 316 313 309 304 299 294 290 286 282 279 277 273 272 271 271 273
161 151 136 105 24 336 322 313 305 298 293 292 290 292 292 291 290 296 300 306 317 323 323 321 320 318 315 314 312 309 305 299 294 290 286 283 279 275 272 269 267 267 268
178 174 175 199 228 245 264 279 284 279 276 276 278 284 282 281 286 292 295 295 301 314 320 320 317 314 313 312 311 309 305 300 294 289 285 283 279 274 270 266 263 262 263
191 187 192 213 228 234 245 257 262 259 263 267 269 274 275 278 283 287 288 291 297 303 310 316 315 314 312 310 308 306 304 300 293 288 283 281 278 273 268 265 261 258 259
198 196 202 218 225 226 234 247 246 233 257 268 270 264 261 267 274 281 283 288 294 299 300 308 314 313 310 306 305 305 303 299 293 287 282 279 278 274 268 264 259 255 254
201 201 207 219 222 219 228 233 246 246 244 259 278 278 266 263 264 263 270 283 291 295 298 301 303 305 307 306 304 304 302 299 293 288 283 279 278 275 268 262 258 253 250
201 200 205 213 215 214 221 222 234 262 262 250 271 281 269 254 247 250 259 273 281 285 291 297 299 299 300 302 303 302 300 298 293 289 284 282 279 278 272 264 258 252 247
201 203 206 209 213 214 218 221 215 239 261 264 272 306 314 293 251 250 248 262 271 279 289 296 296 296 298 297 294 298 300 299 295 291 286 282 280 279 275 267 259 251 245
201 202 204 209 212 210 217 220 212 218 244 254 210 234 292 298 310 259 236 254 259 265 278 285 290 296 301 298 294 294 295 296 295 292 288 285 281 280 277 271 262 252 244
200 204 208 209 212 214 215 222 220 211 221 250 237 221 223 238 287 303 280 252 253 270 270 285 290 294 296 295 292 294 296 297 298 296 292 290 286 284 280 274 268 256 245
201 204 207 209 212 216 219 221 221 219 218 231 233 230 239 244 237 263 293 297 285 259 263 265 278 287 292 291 290 291 293 298 301 301 301 298 296 294 290 282 275 263 250
201 205 207 209 214 217 220 223 223 224 228 232 239 234 235 242 247 250 273 290 294 288 266 260 269 279 284 288 290 294 297 300 303 306 308 306 304 302 300 296 290 281 269
203 206 206 208 213 220 224 225 223 228 229 233 238 243 243 246 251 256 268 282 288 290 277 262 256 267 281 286 289 294 296 300 304 307 308 307 305 304 303 300 297 296 295
204 196 202 208 214 219 225 224 226 231 230 235 245 243 248 253 252 253 260 275 287 291 285 271 253 255 273 281 286 293 295 297 302 304 305 305 304 303 302 300 297 297 298
196 196 199 205 213 219 223 222 230 234 235 239 246 248 250 257 255 254 256 257 269 287 291 288 279 256 271 279 284 288 286 293 297 300 302 302 300 299 297 296 295 292 293
194 190 197 204 210 217 221 221 232 236 238 245 247 250 253 257 258 259 258 258 256 264 279 282 280 278 277 284 287 289 289 292 296 298 296 295 295 295 294 292 292 290 287
195 198 199 204 211 217 217 223 233 235 241 251 252 252 257 258 261 263 262 261 259 259 271 281 279 279 275 277 281 280 280 281 284 289 292 292 292 289 288 287 287 286 284
197 198 198 204 212 217 216 222 235 242 242 251 256 256 260 263 262 264 265 264 263 261 265 277 280 278 274 274 274 273 280 281 280 286 288 288 287 286 284 281 280 281 281
196 196 197 205 211 215 218 224 232 241 244 249 254 256 260 262 265 265 264 265 265 264 262 268 276 277 276 273 273 275 273 273 278 283 287 288 286 285 281 279 276 275 275
195 196 199 205 210 213 220 227 232 240 247 252 253 255 257 258 262 265 265 262 262 262 263 265 271 275 275 270 268 276 282 276 278 282 283 283 282 282 280 277 274 271 270
196 194 196 204 210 214 219 224 233 241 246 253 255 253 255 261 265 273 277 271 263 263 267 267 271 276 278 278 276 278 282 284 277 272 274 274 275 274 277 278 274 270 266
191 188 195 201 210 221 235 244 245 239 242 250 258 258 258 269 278 284 288 290 288 283 282 278 280 281 281 277 278 277 279 281 283 255 258 271 269 272 269 262 263 262 259
188 190 196 201 214 227 239 251 260 261 253 252 255 263 271 271 285 281 285 288 287 285 285 285 284 282 281 278 275 273 268 266 268 263 269 277 272 271 270 265 264 257 252
191 195 199 205 215 229 239 250 261 265 259 253 252 256 263 268 274 282 277 279 272 269 274 279 274 276 277 276 268 266 267 268 267 263 257 269 271 269 272 265 264 255 248
192 196 198 203 213 228 237 248 260 256 259 258 256 258 263 265 282 292 296 294 286 281 291 293 294 296 299 300 298 291 280 276 277 275 251 257 272 280 275 265 256 250 243
195 194 201 205 211 220 231 242 254 249 259 266 265 261 275 284 293 300 303 300 298 296 293 288 292 295 294 292 295 290 279 275 275 278 245 242 263 282 288 268 257 250 241
Height
1566 1564 1563 1561 1559 1557 1555 1552 1549 1546 1543 1540 1537 1534 1532 1529 1526 1524 1521 1518 1515 1513 1511 1509 1507 1504 1502 1499 1496 1493 1489 1487 1485 1484 1483 1483 1483 1484 1484 1485 1486 1488 1491
1562 1560 1559 1557 1555 1552 1550 1547 1544 1541 1538 1535 1533 1530 1528 1525 1522 1519 1516 1513 1510 1507 1505 1503 1502 1499 1496 1493 1490 1486 1482 1479 1476 1474 1473 1473 1473 1474 1475 1476 1477 1479 1481
1558 1556 1554 1552 1550 1547 1545 1542 1539 1536 1533 1530 1528 1526 1523 1520 1517 1514 1511 1508 1505 1502 1499 1497 1495 1493 1491 1487 1483 1479 1475 1471 1467 1465 1464 1463 1463 1463 1465 1466 1468 1470 1471
1553 1551 1550 1547 1545 1542 1540 1537 1535 1532 1529 1526 1524 1521 1518 1515 1512 1509 1506 1503 1500 1497 1494 1491 1489 1487 1484 1480 1476 1472 1467 1463 1459 1456 1454 1453 1453 1453 1454 1456 1458 1460 1462
1548 1546 1545 1542 1540 1537 1535 1533 1530 1527 1524 1521 1518 1515 1512 1509 1506 1503 1500 1498 1495 1492 1489 1486 1483 1479 1476 1473 1469 1464 1459 1454 1450 1447 1445 1444 1443 1443 1444 1445 1448 1450 1453
1542 1541 1539 1537 1535 1533 1531 1528 1526 1523 1520 1516 1512 1509 1506 1502 1499 1497 1495 1492 1490 1487 1484 1480 1477 1472 1468 1465 1461 1456 1451 1446 1441 1438 1435 1434 1433 1432 1433 1435 1437 1440 1443
1537 1535 1534 1532 1530 1528 1526 1524 1521 1519 1516 1512 1506 1500 1497 1494 1492 1489 1488 1486 1484 1481 1478 1475 1471 1466 1461 1456 1452 1447 1443 1437 1433 1429 1426 1424 1422 1422 1422 1424 1426 1429 1433
1531 1530 1528 1527 1525 1523 1521 1519 1516 1513 1511 1508 1503 1496 1490 1486 1483 1482 1481 1479 1477 1475 1472 1468 1464 1459 1454 1449 1444 1439 1435 1429 1424 1420 1417 1415 1413 1412 1412 1413 1415 1419 1422
1524 1523 1523 1521 1519 1517 1516 1514 1511 1508 1506 1504 1501 1498 1492 1484 1478 1473 1472 1471 1469 1467 1464 1461 1456 1452 1447 1442 1437 1431 1427 1422 1417 1413 1409 1406 1405 1403 1402 1403 1405 1408 1412
1517 1517 1516 1515 1513 1512 1510 1508 1506 1504 1501 1499 1497 1494 1492 1487 1481 1470 1465 1464 1462 1459 1456 1453 1449 1444 1439 1434 1429 1425 1420 1415 1410 1405 1401 1398 1396 1394 1394 1394 1396 1399 1403
1510 1510 1509 1508 1507 1506 1504 1502 1500 1498 1496 1493 1491 1489 1486 1483 1479 1473 1462 1455 1453 1451 1448 1445 1441 1436 1432 1427 1422 1418 1414 1409 1404 1399 1394 1390 1387 1385 1385 1385 1387 1390 1393
1503 1502 1502 1501 1500 1499 1498 1496 1494 1492 1490 1488 1485 1483 1480 1478 1474 1470 1461 1452 1445 1441 1439 1436 1433 1429 1424 1419 1415 1411 1408 1403 1398 1393 1388 1383 1380 1378 1376 1376 1378 1380 1384
1494 1495 1494 1494 1493 1492 1491 1490 1488 1486 1484 1481 1479 1477 1474 1471 1468 1464 1458 1448 1440 1433 1430 1426 1424 1421 1417 1413 1408 1404 1400 1396 1392 1387 1382 1378 1375 1372 1370 1369 1369 1371 1374
1487 1487 1487 1486 1486 1485 1484 1483 1481 1479 1477 1474 1472 1470 1467 1464 1461 1458 1453 1446 1435 1425 1421 1418 1415 1413 1410 1406 1401 1398 1393 1389 1385 1381 1377 1373 1370 1367 1366 1364 1363 1364 1366
1479 1479 1478 1478 1478 1478 1477 1475 1473 1472 1470 1467 1465 1462 1459 1457 1454 1450 1446 1441 1434 1422 1411 1410 1407 1404 1402 1398 1394 1391 1386 1382 1379 1375 1371 1367 1365 1362 1361 1360 1359 1359 1360
1469 1470 1470 1470 1470 1470 1469 1468 1466 1464 1462 1460 1457 1454 1452 1449 1445 1442 1437 1432 1427 1420 1407 1401 1399 1396 1393 1390 1387 1384 1380 1376 1372 1367 1364 1362 1359 1357 1356 1355 1354 1355 1355
1459 1460 1461 1462 1462 1462 1462 1461 1459 1457 1454 1452 1450 1447 1443 1441 1437 1433 1429 1424 1419 1413 1403 1394 1393 1388 1385 1382 1379 1376 1372 1367 1362 1359 1356 1354 1352 1351 1350 1349 1349 1349 1350
1449 1451 1452 1453 1454 1454 1454 1453 1451 1449 1447 1444 1441 1438 1435 1433 1429 1425 1420 1415 1410 1405 1398 1389 1384 1380 1377 1374 1370 1367 1363 1359 1355 1350 1348 1345 1343 1342 1342 1342 1342 1343 1345
1438 1441 1443 1444 1445 1446 1446 1445 1443 1441 1439 1436 1433 1430 1427 1425 1420 1417 1412 1407 1401 1397 1391 1384 1376 1372 1368 1365 1362 1358 1354 1350 1346 1342 1339 1336 1334 1333 1333 1334 1335 1336 1338
1428 1431 1433 1435 1437 1438 1438 1437 1435 1433 1431 1428 1425 1422 1420 1417 1412 1408 1403 1398 1393 1388 1383 1376 1369 1364 1360 1357 1354 1349 1345 1342 1337 1334 1330 1328 1325 1324 1324 1325 1327 1329 1331
1419 1423 1425 1427 1429 1429 1430 1429 1428 1425 1423 1420 1417 1414 1412 1409 1405 1401 1397 1391 1386 1380 1375 1369 1362 1357 1353 1350 1346 1342 1337 1332 1328 1326 1322 1319 1317 1316 1315 1316 1318 1320 1324
1409 1413 1417 1419 1421 1421 1422 1421 1419 1417 1415 1412 1409 1406 1404 1401 1398 1393 1389 1385 1381 1375 1368 1363 1356 1350 1345 1342 1338 1334 1330 1325 1320 1318 1316 1311 1310 1307 1307 1308 1309 1312 1315
1400 1404 1408 1410 1412 1414 1414 1413 1412 1410 1408 1405 1402 1399 1396 1393 1390 1385 1380 1375 1371 1367 1363 1357 1349 1343 1337 1333 1329 1324 1321 1317 1313 1311 1310 1303 1302 1299 1299 1299 1301 1303 1307
1392 1396 1399 1402 1404 1405 1406 1406 1405 1403 1400 1398 1395 1392 1389 1385 1382 1377 1372 1367 1362 1358 1353 1347 1341 1334 1329 1324 1320 1316 1312 1308 1305 1304 1303 1297 1294 1292 1291 1290 1292 1294 1298
1383 1387 1391 1394 1396 1397 1398 1398 1398 1395 1393 1390 1388 1385 1382 1378 1374 1371 1367 1361 1355 1350 1345 1340 1334 1328 1322 1316 1312 1308 1304 1302 1298 1296 1295 1292 1288 1286 1284 1283 1285 1288 1291
1374 1379 1383 1386 1388 1389 1391 1391 1390 1388 1386 1383 1381 1378 1376 1372 1369 1366 1362 1355 1349 1342 1337 1330 1325 1319 1313 1307 1303 1300 1297 1294 1292 1289 1287 1287 1284 1284 1281 1278 1280 1282 1285